Regional Weather Roundup
Issued by NWS Green Bay, WI

Home | Current Version | Previous Version | Graphics & Text | Print | Product List | Glossary Off
Versions: 1 2 3 4 5 6 7 8 9 10 11 12 13 14 15 16 17 18 19 20 21 22 23 24 25 26 27 28 29 30 31 32 33 34 35 36 37 38 39 40 41 42 43 44 45 46 47 48 49 50

000
ASUS43 KGRB 310010
RWRGRB

NORTH-CENTRAL AND NORTHEAST WISCONSIN REGIONAL WEATHER ROUNDUP
NATIONAL WEATHER SERVICE GREEN BAY WI
600 PM CST FRI JAN 30 2015

WIZ005-009-010>012-018-019-310100-
NORTH CENTRAL WISCONSIN

CITY           SKY/WX    TMP DP  RH WIND       PRES   REMARKS
IRONWOOD       CLOUDY    16   9  73 S6        30.21F WCI   7
MANITOWISH WTR MOCLDY    13   5  69 S3        30.22F
ARBOR VITAE    PTCLDY    17   5  60 CALM      30.23F
EAGLE RIVER    CLEAR     14   4  62 CALM      30.24F
LAND O LAKES   MOCLDY    15   7  72 CALM      30.24F
RHINELANDER    CLEAR     16   3  56 S8        30.26F WCI   5
PHILLIPS       CLOUDY    15   4  61 SW7       30.25F WCI   5
ANTIGO         MOCLDY    15   6  67 SW7       30.29F WCI   5
TOMAHAWK       CLOUDY    15   4  64 CALM      30.28F
MERRILL        CLOUDY    15   6  67 SW5       30.30F WCI   8
$$

WIZ013-073-310100-
NORTHEAST WISCONSIN

CITY           SKY/WX    TMP DP  RH WIND       PRES   REMARKS
IRON MOUNTAIN  MOCLDY    18   4  54 S6        30.28F WCI  10
MARINETTE      CLOUDY    18   9  68 SW8       30.36F WCI   7
OCONTO         CLOUDY    19   7  58 CALM      30.37F
$$

WIZ017-030-035>037-045-310100-
CENTRAL WISCONSIN

CITY           SKY/WX    TMP DP  RH WIND       PRES   REMARKS
MEDFORD        MOCLDY    14   6  70 SE5       30.28F WCI   6
WAUSAU         CLOUDY    16   5  62 SW3       30.30F
MOSINEE        NOT AVBL
MARSHFIELD     CLEAR     16   5  62 CALM      30.31F
WISC RAPIDS    PTCLDY    19   4  51 S6        30.35F
STEVENS POINT  CLOUDY    16   6  64 S5        30.34F WCI   9
WAUPACA        PTCLDY    22   9  56 CALM      30.36F
SHAWANO        CLOUDY    22   7  51 SW3       30.36F
CLINTONVILLE   CLOUDY    21   9  58 SW3       30.35F
$$

WIZ038-039-048-051-310100-
FOX VALLEY

CITY           SKY/WX    TMP DP  RH WIND       PRES   REMARKS
NWS GREEN BAY  CLOUDY    20  11  68 S6        30.38F
APPLETON       MOCLDY    18   9  68 VRB5      30.37F
OSHKOSH        PTCLDY    21  10  62 CALM      30.38F
FOND DU LAC    PTCLDY    21  11  65 S5        30.38S
$$

WIZ022-050-052-310100-
EAST CENTRAL WISCONSIN

CITY           SKY/WX    TMP DP  RH WIND       PRES   REMARKS
STURGEON BAY   CLOUDY    18   7  62 S5        30.39F
MANITOWOC      CLOUDY    19  12  74 CALM      30.40F
SHEBOYGAN      PTCLDY    20   9  62 W5        30.39S
$$

LMZ563-521-522-541>543-310100-
LAKESHORE

STATION/POSITION TIME  TEMP    WIND        PRES    VSBY  WAVE
                       AIR SEA DIR/SP/G                  HT/PER
                 (UTC) (F)     (DEG/KT/KT) (MB)    (MI)  (FT/S)
SHEBOYGAN LKSHOR 0000   23     240/  4/  5 1030.7F
KEWAUNEE LKSHORE 0000   20     230/  2/  5 1028.4F
NORTHPORT PIER   0000   17      CALM  /  3 1028.8S
SISTER BAY LKSHO 2300   17     220/  8/  9   N/A
CHAMBERS ISLAND  0000   17     170/  4/  8 1028.8S
MENOMINEE LKSHOR 0000   18     200/  5     1029.1F
$$



USA.gov is the U.S. government's official web portal to all federal, state and local government web resources and services.